,,,PA_Meas_PMT16A,,PR_Meas_QMR101_102,,RH_Meas_QMH101,,SR_Meas_QMS101,,TA_Meas_QMH101,,GenWind,,GenWind,
date,time,status,PA,status,PR,status,RH,status,SR,status,TA,status,DirAvg,status,SpdAvg,
2014-11-06, 00:00:05,VALID,1012.17,VALID,0,INVALID,120.35,VALID,0,VALID,23.1857,VALID,345,VALID,0,
2014-11-06, 00:01:05,VALID,1012.19,VALID,0,INVALID,120.327,VALID,0,VALID,23.2051,VALID,345,VALID,0,
2014-11-06, 00:02:05,VALID,1012.19,VALID,0,INVALID,120.35,VALID,0,VALID,23.2264,VALID,345,VALID,0,
2014-11-06, 00:03:05,VALID,1012.19,VALID,0,INVALID,120.357,VALID,0,VALID,23.1857,VALID,345,VALID,0,
2014-11-06, 00:04:05,VALID,1012.17,VALID,0,INVALID,120.373,VALID,0,VALID,23.2069,VALID,345,VALID,0,
2014-11-06, 00:05:05,VALID,1012.2,VALID,0,INVALID,120.319,VALID,0,VALID,23.2051,VALID,345,VALID,0,
2014-11-06, 00:06:05,VALID,1012.21,VALID,0,INVALID,120.266,VALID,0,VALID,23.2459,VALID,345,VALID,0,
2014-11-06, 00:07:05,VALID,1012.22,VALID,0,INVALID,120.266,VALID,0,VALID,23.2264,VALID,345,VALID,0,
2014-11-06, 00:08:05,VALID,1012.22,VALID,0,INVALID,120.235,VALID,0,VALID,23.2264,VALID,345,VALID,0,
2014-11-06, 00:09:05,VALID,1012.28,VALID,0,INVALID,120.212,VALID,0,VALID,23.2069,VALID,345,VALID,0,
2014-11-06, 00:10:05,VALID,1012.26,VALID,0,INVALID,120.189,VALID,0,VALID,23.2069,VALID,345,VALID,0,
2014-11-06, 00:11:05,VALID,1012.29,VALID,0,INVALID,120.212,VALID,0,VALID,23.2069,VALID,345,VALID,0,
2014-11-06, 00:12:05,VALID,1012.28,VALID,0,INVALID,120.228,VALID,0,VALID,23.2069,VALID,345,VALID,0,
2014-11-06, 00:13:05,VALID,1012.28,VALID,0,INVALID,120.197,VALID,0,VALID,23.2264,VALID,345,VALID,0,
2014-11-06, 00:14:05,VALID,1012.27,VALID,0,INVALID,120.174,VALID,0,VALID,23.2264,VALID,345,VALID,0,
2014-11-06, 00:15:05,VALID,1012.26,VALID,0,INVALID,120.182,VALID,0,VALID,23.1857,VALID,345,VALID,0,
2014-11-06, 00:16:05,VALID,1012.25,VALID,0,INVALID,120.159,VALID,0,VALID,23.1857,VALID,345,VALID,0,
2014-11-06, 00:17:05,VALID,1012.24,VALID,0,INVALID,120.113,VALID,0,VALID,23.2264,VALID,345,VALID,0,
2014-11-06, 00:18:05,VALID,1012.24,VALID,0,INVALID,120.09,VALID,0,VALID,23.2264,VALID,345,VALID,0,
2014-11-06, 00:19:05,VALID,1012.21,VALID,0,INVALID,120.106,VALID,0,VALID,23.2264,VALID,345,VALID,0,
2014-11-06, 00:20:05,VALID,1012.17,VALID,0,INVALID,120.098,VALID,0,VALID,23.2264,VALID,345,VALID,0,
2014-11-06, 00:21:05,VALID,1012.17,VALID,0,INVALID,120.06,VALID,0,VALID,23.2051,VALID,345,VALID,0,
2014-11-06, 00:22:05,VALID,1012.17,VALID,0,INVALID,120.06,VALID,0,VALID,23.2051,VALID,345,VALID,0,
2014-11-06, 00:23:05,VALID,1012.13,VALID,0,INVALID,120.067,VALID,0,VALID,23.2051,VALID,345,VALID,0,
2014-11-06, 00:24:05,VALID,1012.09,VALID,0,INVALID,120.075,VALID,0,VALID,23.2459,VALID,345,VALID,0,
2014-11-06, 00:25:05,VALID,1012.08,VALID,0,INVALID,120.006,VALID,0,VALID,23.2246,VALID,345,VALID,0,
2014-11-06, 00:26:05,VALID,1012.04,VALID,0,INVALID,119.999,VALID,0,VALID,23.2246,VALID,345,VALID,0,
2014-11-06, 00:27:05,VALID,1012.01,VALID,0,INVALID,120.029,VALID,0,VALID,23.2654,VALID,345,VALID,0,
2014-11-06, 00:28:05,VALID,1011.98,VALID,0,INVALID,120.022,VALID,0,VALID,23.2459,VALID,345,VALID,0,
2014-11-06, 00:29:05,VALID,1011.96,VALID,0,INVALID,119.999,VALID,0.112112,VALID,23.2654,VALID,345,VALID,0,
2014-11-06, 00:30:05,VALID,1011.93,VALID,0,INVALID,119.984,VALID,0,VALID,23.2459,VALID,345,VALID,0,
2014-11-06, 00:31:05,VALID,1011.92,VALID,0,INVALID,119.938,VALID,0.112112,VALID,23.2441,VALID,345,VALID,0,
2014-11-06, 00:32:05,VALID,1011.94,VALID,0,INVALID,119.923,VALID,0.112112,VALID,23.2441,VALID,345,VALID,0,
2014-11-06, 00:33:05,VALID,1011.9,VALID,0,INVALID,119.907,VALID,0.112112,VALID,23.2636,VALID,345,VALID,0,
2014-11-06, 00:34:05,VALID,1011.91,VALID,0,INVALID,119.884,VALID,0.112112,VALID,23.2654,VALID,345,VALID,0,
2014-11-06, 00:35:05,VALID,1011.92,VALID,0,INVALID,119.823,VALID,0,VALID,23.2848,VALID,345,VALID,0,
2014-11-06, 00:36:05,VALID,1011.93,VALID,0,INVALID,119.77,VALID,0,VALID,23.3238,VALID,345,VALID,0,
2014-11-06, 00:37:05,VALID,1011.92,VALID,0,INVALID,119.74,VALID,0,VALID,23.3026,VALID,345,VALID,0,
2014-11-06, 00:38:05,VALID,1011.95,VALID,0,INVALID,119.74,VALID,0,VALID,23.3026,VALID,345,VALID,0,
2014-11-06, 00:39:05,VALID,1011.93,VALID,0,INVALID,119.694,VALID,0,VALID,23.3433,VALID,345,VALID,0,
2014-11-06, 00:40:05,VALID,1011.92,VALID,0,INVALID,119.663,VALID,0,VALID,23.3628,VALID,345,VALID,0,
2014-11-06, 00:41:05,VALID,1011.91,VALID,0,INVALID,119.663,VALID,0.112112,VALID,23.3415,VALID,345,VALID,0,
2014-11-06, 00:42:05,VALID,1011.9,VALID,0,INVALID,119.717,VALID,0,VALID,23.322,VALID,345,VALID,0,
2014-11-06, 00:43:05,VALID,1011.89,VALID,0,INVALID,119.686,VALID,0,VALID,23.3433,VALID,345,VALID,0,
2014-11-06, 00:44:05,VALID,1011.91,VALID,0,INVALID,119.679,VALID,0.112112,VALID,23.3415,VALID,345,VALID,0,
2014-11-06, 00:45:05,VALID,1011.88,VALID,0,INVALID,119.633,VALID,0.112112,VALID,23.3628,VALID,345,VALID,0,
2014-11-06, 00:46:05,VALID,1011.86,VALID,0,INVALID,119.602,VALID,0.112112,VALID,23.3628,VALID,345,VALID,0,
2014-11-06, 00:47:05,VALID,1011.85,VALID,0,INVALID,119.618,VALID,0,VALID,23.3823,VALID,345,VALID,0,
2014-11-06, 00:48:05,VALID,1011.82,VALID,0,INVALID,119.595,VALID,0,VALID,23.3628,VALID,345,VALID,0,
2014-11-06, 00:49:05,VALID,1011.82,VALID,0,INVALID,119.572,VALID,0,VALID,23.361,VALID,345,VALID,0,
2014-11-06, 00:50:05,VALID,1011.81,VALID,0,INVALID,119.541,VALID,0,VALID,23.3628,VALID,345,VALID,0,
2014-11-06, 00:51:05,VALID,1011.77,VALID,0,INVALID,119.602,VALID,0,VALID,23.3823,VALID,345,VALID,0,
2014-11-06, 00:52:05,VALID,1011.75,VALID,0,INVALID,119.541,VALID,0,VALID,23.3823,VALID,345,VALID,0,
2014-11-06, 00:53:05,VALID,1011.72,VALID,0,INVALID,119.587,VALID,0,VALID,23.3628,VALID,345,VALID,0,
2014-11-06, 00:54:05,VALID,1011.71,VALID,0,INVALID,119.549,VALID,0.112112,VALID,23.3823,VALID,345,VALID,0,
2014-11-06, 00:55:05,VALID,1011.69,VALID,0,INVALID,119.557,VALID,0,VALID,23.3628,VALID,345,VALID,0,
2014-11-06, 00:56:05,VALID,1011.65,VALID,0,INVALID,119.549,VALID,0,VALID,23.322,VALID,345,VALID,0,
2014-11-06, 00:57:05,VALID,1011.66,VALID,0,INVALID,119.549,VALID,0,VALID,23.3628,VALID,345,VALID,0,
2014-11-06, 00:58:05,VALID,1011.67,VALID,0,INVALID,119.541,VALID,0,VALID,23.3433,VALID,345,VALID,0,
2014-11-06, 00:59:05,VALID,1011.64,VALID,0,INVALID,119.511,VALID,0,VALID,23.3628,VALID,345,VALID,0,
2014-11-06, 01:00:05,VALID,1011.62,VALID,0,INVALID,119.488,VALID,0,VALID,23.3415,VALID,345,VALID,0,
2014-11-06, 01:01:05,VALID,1011.6,VALID,0,INVALID,119.488,VALID,0,VALID,23.3628,VALID,345,VALID,0,
2014-11-06, 01:02:05,VALID,1011.59,VALID,0,INVALID,119.465,VALID,0,VALID,23.3415,VALID,345,VALID,0,
2014-11-06, 01:03:05,VALID,1011.59,VALID,0,INVALID,119.465,VALID,0,VALID,23.3628,VALID,345,VALID,0,
2014-11-06, 01:04:05,VALID,1011.59,VALID,0,INVALID,119.427,VALID,0.112112,VALID,23.361,VALID,345,VALID,0,
2014-11-06, 01:05:05,VALID,1011.53,VALID,0,INVALID,119.457,VALID,0,VALID,23.361,VALID,345,VALID,0,
2014-11-06, 01:06:05,VALID,1011.53,VALID,0,INVALID,119.404,VALID,0,VALID,23.3628,VALID,345,VALID,0,
2014-11-06, 01:07:05,VALID,1011.53,VALID,0,INVALID,119.442,VALID,0.112112,VALID,23.3628,VALID,345,VALID,0,
2014-11-06, 01:08:05,VALID,1011.49,VALID,0,INVALID,119.457,VALID,0,VALID,23.3628,VALID,345,VALID,0,
2014-11-06, 01:09:05,VALID,1011.49,VALID,0,INVALID,119.381,VALID,0,VALID,23.3823,VALID,345,VALID,0,
2014-11-06, 01:10:05,VALID,1011.48,VALID,0,INVALID,119.427,VALID,0,VALID,23.3823,VALID,345,VALID,0,
2014-11-06, 01:11:05,VALID,1011.45,VALID,0,INVALID,119.427,VALID,0,VALID,23.3628,VALID,345,VALID,0,
2014-11-06, 01:12:05,VALID,1011.44,VALID,0,INVALID,119.381,VALID,0,VALID,23.3415,VALID,345,VALID,0,
2014-11-06, 01:13:05,VALID,1011.41,VALID,0,INVALID,119.511,VALID,0,VALID,23.3433,VALID,111,VALID,0,
2014-11-06, 01:14:05,VALID,1011.37,VALID,0,INVALID,119.465,VALID,0,VALID,23.3238,VALID,111,VALID,0,
2014-11-06, 01:15:05,VALID,1011.33,VALID,0,INVALID,119.442,VALID,0,VALID,23.3238,VALID,111,VALID,0,
2014-11-06, 01:16:05,VALID,1011.32,VALID,0,INVALID,119.366,VALID,0,VALID,23.3433,VALID,111,VALID,0,
2014-11-06, 01:17:05,VALID,1011.29,VALID,0,INVALID,119.404,VALID,0,VALID,23.3433,VALID,110,VALID,0,
2014-11-06, 01:18:05,VALID,1011.26,VALID,0,INVALID,119.419,VALID,0,VALID,23.3238,VALID,110,VALID,0,
2014-11-06, 01:19:05,VALID,1011.29,VALID,0,INVALID,119.457,VALID,0,VALID,23.3043,VALID,105,VALID,0,
2014-11-06, 01:20:05,VALID,1011.26,VALID,0,INVALID,119.412,VALID,0,VALID,23.3238,VALID,105,VALID,0,
2014-11-06, 01:21:05,VALID,1011.26,VALID,0,INVALID,119.396,VALID,0,VALID,23.3238,VALID,105,VALID,0,
2014-11-06, 01:22:05,VALID,1011.25,VALID,0,INVALID,119.358,VALID,0,VALID,23.3238,VALID,105,VALID,0,
2014-11-06, 01:23:05,VALID,1011.26,VALID,0,INVALID,119.374,VALID,0,VALID,23.3043,VALID,105,VALID,0,
2014-11-06, 01:24:05,VALID,1011.24,VALID,0,INVALID,119.374,VALID,0,VALID,23.3238,VALID,105,VALID,0,
2014-11-06, 01:25:05,VALID,1011.25,VALID,0,INVALID,119.381,VALID,0,VALID,23.3238,VALID,105,VALID,0,
2014-11-06, 01:26:05,VALID,1011.25,VALID,0,INVALID,119.366,VALID,0,VALID,23.3238,VALID,105,VALID,0,
2014-11-06, 01:27:05,VALID,1011.27,VALID,0,INVALID,119.351,VALID,0,VALID,23.3043,VALID,105,VALID,0,
2014-11-06, 01:28:05,VALID,1011.27,VALID,0,INVALID,119.427,VALID,0,VALID,23.3043,VALID,105,VALID,0,
2014-11-06, 01:29:05,VALID,1011.29,VALID,0,INVALID,119.366,VALID,0,VALID,23.3043,VALID,105,VALID,0,
2014-11-06, 01:30:05,VALID,1011.26,VALID,0,INVALID,119.305,VALID,0,VALID,23.3043,VALID,105,VALID,0,
2014-11-06, 01:31:05,VALID,1011.29,VALID,0,INVALID,119.335,VALID,0,VALID,23.3238,VALID,106,VALID,0,
2014-11-06, 01:32:05,VALID,1011.28,VALID,0,INVALID,119.32,VALID,0,VALID,23.3238,VALID,106,VALID,0,
2014-11-06, 01:33:05,VALID,1011.28,VALID,0,INVALID,119.313,VALID,0,VALID,23.3238,VALID,106,VALID,0,
2014-11-06, 01:34:05,VALID,1011.28,VALID,0,INVALID,119.282,VALID,0,VALID,23.3238,VALID,106,VALID,0,
2014-11-06, 01:35:05,VALID,1011.27,VALID,0,INVALID,119.29,VALID,0,VALID,23.3238,VALID,106,VALID,0,
2014-11-06, 01:36:05,VALID,1011.26,VALID,0,INVALID,119.305,VALID,0,VALID,23.3043,VALID,106,VALID,0,
2014-11-06, 01:37:05,VALID,1011.26,VALID,0,INVALID,119.29,VALID,0,VALID,23.3238,VALID,106,VALID,0,
2014-11-06, 01:38:05,VALID,1011.31,VALID,0,INVALID,119.305,VALID,0.112112,VALID,23.3026,VALID,106,VALID,0,
2014-11-06, 01:39:05,VALID,1011.32,VALID,0,INVALID,119.297,VALID,0.112112,VALID,23.2831,VALID,106,VALID,0,
2014-11-06, 01:40:05,VALID,1011.31,VALID,0,INVALID,119.244,VALID,0,VALID,23.3043,VALID,106,VALID,0,
2014-11-06, 01:41:04,VALID,1011.33,VALID,0,INVALID,119.229,VALID,0,VALID,23.3433,VALID,106,VALID,0,
2014-11-06, 01:42:04,VALID,1011.32,VALID,0,INVALID,119.145,VALID,0,VALID,23.322,VALID,106,VALID,0,
2014-11-06, 01:43:04,VALID,1011.32,VALID,0,INVALID,119.168,VALID,0.112112,VALID,23.3415,VALID,106,VALID,0,
2014-11-06, 01:44:04,VALID,1011.32,VALID,0,INVALID,119.16,VALID,0,VALID,23.3415,VALID,106,VALID,0,
2014-11-06, 01:45:04,VALID,1011.29,VALID,0,INVALID,119.152,VALID,0.112112,VALID,23.3628,VALID,107,VALID,0,
2014-11-06, 01:46:04,VALID,1011.29,VALID,0,INVALID,119.16,VALID,0,VALID,23.3628,VALID,107,VALID,0,
2014-11-06, 01:47:04,VALID,1011.26,VALID,0,INVALID,119.16,VALID,0,VALID,23.3628,VALID,107,VALID,0,
2014-11-06, 01:48:04,VALID,1011.29,VALID,0,INVALID,119.152,VALID,0,VALID,23.3823,VALID,107,VALID,0,
2014-11-06, 01:49:04,VALID,1011.27,VALID,0,INVALID,119.13,VALID,0.112112,VALID,23.4017,VALID,107,VALID,0,
2014-11-06, 01:50:04,VALID,1011.27,VALID,0,INVALID,119.091,VALID,0,VALID,23.4017,VALID,107,VALID,0,
2014-11-06, 01:51:04,VALID,1011.28,VALID,0,INVALID,119.091,VALID,0,VALID,23.3805,VALID,107,VALID,0,
2014-11-06, 01:52:04,VALID,1011.29,VALID,0,INVALID,119.13,VALID,0,VALID,23.3823,VALID,107,VALID,0,
2014-11-06, 01:53:04,VALID,1011.28,VALID,0,INVALID,119.13,VALID,0,VALID,23.3805,VALID,101,VALID,0,
2014-11-06, 01:54:04,VALID,1011.28,VALID,0,INVALID,119.13,VALID,0,VALID,23.4017,VALID,110,VALID,0,
2014-11-06, 01:55:04,VALID,1011.26,VALID,0,INVALID,119.13,VALID,0,VALID,23.4212,VALID,110,VALID,0,
2014-11-06, 01:56:04,VALID,1011.27,VALID,0,INVALID,119.076,VALID,0,VALID,23.4212,VALID,110,VALID,0,
2014-11-06, 01:57:04,VALID,1011.23,VALID,0,INVALID,119.076,VALID,0,VALID,23.4212,VALID,110,VALID,0,
2014-11-06, 01:58:04,VALID,1011.24,VALID,0,INVALID,119.023,VALID,0,VALID,23.4194,VALID,110,VALID,0,
2014-11-06, 01:59:04,VALID,1011.24,VALID,0,INVALID,119.023,VALID,0,VALID,23.4194,VALID,110,VALID,0,
2014-11-06, 02:00:04,VALID,1011.25,VALID,0,INVALID,119.03,VALID,0,VALID,23.4407,VALID,110,VALID,0,
2014-11-06, 02:01:04,VALID,1011.25,VALID,0,INVALID,119.107,VALID,0.112112,VALID,23.4407,VALID,110,VALID,0,
2014-11-06, 02:02:04,VALID,1011.26,VALID,0,INVALID,119.03,VALID,0,VALID,23.4602,VALID,110,VALID,0,
2014-11-06, 02:03:04,VALID,1011.28,VALID,0,INVALID,119.107,VALID,0,VALID,23.4407,VALID,110,VALID,0,
2014-11-06, 02:04:04,VALID,1011.27,VALID,0,INVALID,119.061,VALID,0,VALID,23.4602,VALID,110,VALID,0,
2014-11-06, 02:05:04,VALID,1011.27,VALID,0,INVALID,119.13,VALID,0,VALID,23.4194,VALID,110,VALID,0,
2014-11-06, 02:06:04,VALID,1011.25,VALID,0,INVALID,119.13,VALID,0,VALID,23.4602,VALID,110,VALID,0,
2014-11-06, 02:07:04,VALID,1011.26,VALID,0,INVALID,119.114,VALID,0.112112,VALID,23.4212,VALID,110,VALID,0,
2014-11-06, 02:08:04,VALID,1011.26,VALID,0,INVALID,119.145,VALID,0,VALID,23.4407,VALID,102,VALID,0,
2014-11-06, 02:09:04,VALID,1011.22,VALID,0,INVALID,119.16,VALID,0.112112,VALID,23.4,VALID,104,VALID,0,
2014-11-06, 02:10:04,VALID,1011.24,VALID,0,INVALID,119.13,VALID,0.112112,VALID,23.4212,VALID,105,VALID,0,
2014-11-06, 02:11:04,VALID,1011.23,VALID,0,INVALID,119.107,VALID,0,VALID,23.4407,VALID,89,VALID,0,
2014-11-06, 02:12:04,VALID,1011.21,VALID,0,INVALID,119.084,VALID,0,VALID,23.4194,VALID,113,VALID,0,
2014-11-06, 02:13:04,VALID,1011.23,VALID,0,INVALID,119.091,VALID,0,VALID,23.4194,VALID,105,VALID,0,
2014-11-06, 02:14:04,VALID,1011.19,VALID,0,INVALID,119.13,VALID,0.112112,VALID,23.4212,VALID,115,VALID,0,
2014-11-06, 02:15:04,VALID,1011.18,VALID,0,INVALID,119.168,VALID,0,VALID,23.4212,VALID,129,VALID,0,
2014-11-06, 02:16:04,VALID,1011.19,VALID,0,INVALID,119.137,VALID,0,VALID,23.4407,VALID,129,VALID,0,
2014-11-06, 02:17:04,VALID,1011.19,VALID,0,INVALID,119.13,VALID,0,VALID,23.4,VALID,115,VALID,0,
2014-11-06, 02:18:04,VALID,1011.18,VALID,0,INVALID,119.175,VALID,0,VALID,23.4,VALID,115,VALID,0,
2014-11-06, 02:19:04,VALID,1011.18,VALID,0,INVALID,119.16,VALID,0.112112,VALID,23.4,VALID,115,VALID,0,
2014-11-06, 02:20:04,VALID,1011.18,VALID,0,INVALID,119.183,VALID,0.112112,VALID,23.4017,VALID,115,VALID,0,
2014-11-06, 02:21:04,VALID,1011.17,VALID,0,INVALID,119.183,VALID,0,VALID,23.4212,VALID,110,VALID,0,
2014-11-06, 02:22:04,VALID,1011.16,VALID,0,INVALID,119.175,VALID,0.112112,VALID,23.3805,VALID,110,VALID,0,
2014-11-06, 02:23:04,VALID,1011.16,VALID,0,INVALID,119.145,VALID,0.112112,VALID,23.3805,VALID,110,VALID,0,
2014-11-06, 02:24:04,VALID,1011.17,VALID,0,INVALID,119.137,VALID,0,VALID,23.4212,VALID,115,VALID,0,
2014-11-06, 02:25:04,VALID,1011.16,VALID,0,INVALID,119.137,VALID,0,VALID,23.4,VALID,131,VALID,0,
2014-11-06, 02:26:04,VALID,1011.18,VALID,0,INVALID,119.175,VALID,0.112112,VALID,23.4212,VALID,132,VALID,0,
2014-11-06, 02:27:04,VALID,1011.23,VALID,0,INVALID,119.145,VALID,0,VALID,23.4212,VALID,131,VALID,0,
2014-11-06, 02:28:04,VALID,1011.24,VALID,0,INVALID,119.13,VALID,0.112112,VALID,23.4407,VALID,132,VALID,0,
2014-11-06, 02:29:04,VALID,1011.24,VALID,0,INVALID,119.099,VALID,0,VALID,23.4194,VALID,132,VALID,0,
2014-11-06, 02:30:04,VALID,1011.27,VALID,0,INVALID,119.16,VALID,0,VALID,23.4,VALID,132,VALID,0,
2014-11-06, 02:31:04,VALID,1011.26,VALID,0,INVALID,119.175,VALID,0.112112,VALID,23.3805,VALID,132,VALID,0,
2014-11-06, 02:32:04,VALID,1011.27,VALID,0,INVALID,119.252,VALID,0,VALID,23.4017,VALID,132,VALID,0,
2014-11-06, 02:33:04,VALID,1011.29,VALID,0,INVALID,119.252,VALID,0.112112,VALID,23.3805,VALID,132,VALID,0,
2014-11-06, 02:34:04,VALID,1011.26,VALID,0,INVALID,119.175,VALID,0,VALID,23.4017,VALID,132,VALID,0,
2014-11-06, 02:35:04,VALID,1011.26,VALID,0,INVALID,119.259,VALID,0.112112,VALID,23.3823,VALID,132,VALID,0,
2014-11-06, 02:36:04,VALID,1011.26,VALID,0,INVALID,119.252,VALID,0,VALID,23.3805,VALID,132,VALID,0,
2014-11-06, 02:37:04,VALID,1011.24,VALID,0,INVALID,119.244,VALID,0.112112,VALID,23.4017,VALID,132,VALID,0,
2014-11-06, 02:38:04,VALID,1011.22,VALID,0,INVALID,119.206,VALID,0,VALID,23.3805,VALID,132,VALID,0,
2014-11-06, 02:39:04,VALID,1011.25,VALID,0,INVALID,119.229,VALID,0,VALID,23.3823,VALID,132,VALID,0,
2014-11-06, 02:40:04,VALID,1011.23,VALID,0,INVALID,119.244,VALID,0.112112,VALID,23.4017,VALID,132,VALID,0,
2014-11-06, 02:41:04,VALID,1011.23,VALID,0,INVALID,119.236,VALID,0.112112,VALID,23.4,VALID,132,VALID,0,
2014-11-06, 02:42:04,VALID,1011.22,VALID,0,INVALID,119.213,VALID,0.112112,VALID,23.3805,VALID,132,VALID,0,
2014-11-06, 02:43:04,VALID,1011.24,VALID,0,INVALID,119.267,VALID,0.112112,VALID,23.3823,VALID,132,VALID,0,
2014-11-06, 02:44:04,VALID,1011.25,VALID,0,INVALID,119.267,VALID,0,VALID,23.3805,VALID,132,VALID,0,
2014-11-06, 02:45:04,VALID,1011.24,VALID,0,INVALID,119.213,VALID,0,VALID,23.4017,VALID,132,VALID,0,
2014-11-06, 02:46:04,VALID,1011.24,VALID,0,INVALID,119.229,VALID,0.112112,VALID,23.4,VALID,132,VALID,0,
2014-11-06, 02:47:04,VALID,1011.23,VALID,0,INVALID,119.236,VALID,0,VALID,23.4017,VALID,132,VALID,0,
2014-11-06, 02:48:04,VALID,1011.25,VALID,0,INVALID,119.29,VALID,0,VALID,23.3823,VALID,131,VALID,0,
2014-11-06, 02:49:04,VALID,1011.23,VALID,0,INVALID,119.32,VALID,0.112112,VALID,23.4017,VALID,132,VALID,0,
2014-11-06, 02:50:04,VALID,1011.23,VALID,0,INVALID,119.274,VALID,0.112112,VALID,23.4017,VALID,132,VALID,0,
2014-11-06, 02:51:04,VALID,1011.23,VALID,0,INVALID,119.29,VALID,0.112112,VALID,23.4212,VALID,132,VALID,0,
2014-11-06, 02:52:04,VALID,1011.24,VALID,0,INVALID,119.267,VALID,0.112112,VALID,23.4212,VALID,132,VALID,0,
2014-11-06, 02:53:04,VALID,1011.24,VALID,0,INVALID,119.252,VALID,0,VALID,23.4212,VALID,132,VALID,0,
2014-11-06, 02:54:04,VALID,1011.22,VALID,0,INVALID,119.206,VALID,0.112112,VALID,23.4194,VALID,132,VALID,0,
2014-11-06, 02:55:04,VALID,1011.24,VALID,0,INVALID,119.259,VALID,0.112112,VALID,23.4212,VALID,132,VALID,0,
2014-11-06, 02:56:04,VALID,1011.25,VALID,0,INVALID,119.29,VALID,0.112112,VALID,23.4194,VALID,132,VALID,0,
2014-11-06, 02:57:04,VALID,1011.23,VALID,0,INVALID,119.282,VALID,0,VALID,23.4212,VALID,132,VALID,0,
2014-11-06, 02:58:04,VALID,1011.24,VALID,0,INVALID,119.282,VALID,0,VALID,23.4407,VALID,132,VALID,0,
2014-11-06, 02:59:04,VALID,1011.24,VALID,0,INVALID,119.274,VALID,0.112112,VALID,23.4,VALID,132,VALID,0,
2014-11-06, 03:00:04,VALID,1011.26,VALID,0,INVALID,119.274,VALID,0,VALID,23.4194,VALID,132,VALID,0,
2014-11-06, 03:01:04,VALID,1011.28,VALID,0,INVALID,119.282,VALID,0,VALID,23.4407,VALID,132,VALID,0,
2014-11-06, 03:02:04,VALID,1011.26,VALID,0,INVALID,119.282,VALID,0.112112,VALID,23.4602,VALID,132,VALID,0,
2014-11-06, 03:03:04,VALID,1011.25,VALID,0,INVALID,119.297,VALID,0,VALID,23.4,VALID,132,VALID,0,
2014-11-06, 03:04:04,VALID,1011.25,VALID,0,INVALID,119.381,VALID,0,VALID,23.3805,VALID,131,VALID,0,
2014-11-06, 03:05:04,VALID,1011.24,VALID,0,INVALID,119.419,VALID,0.112112,VALID,23.3823,VALID,132,VALID,0,
2014-11-06, 03:06:04,VALID,1011.2,VALID,0,INVALID,119.404,VALID,0.112112,VALID,23.3823,VALID,132,VALID,0,
2014-11-06, 03:07:04,VALID,1011.18,VALID,0,INVALID,119.374,VALID,0.112112,VALID,23.4017,VALID,132,VALID,0,
2014-11-06, 03:08:04,VALID,1011.16,VALID,0,INVALID,119.412,VALID,0.112112,VALID,23.4017,VALID,132,VALID,0,
2014-11-06, 03:09:04,VALID,1011.15,VALID,0,INVALID,119.427,VALID,0,VALID,23.4017,VALID,132,VALID,0,
2014-11-06, 03:10:04,VALID,1011.15,VALID,0,INVALID,119.374,VALID,0,VALID,23.4017,VALID,132,VALID,0,
2014-11-06, 03:11:04,VALID,1011.15,VALID,0,INVALID,119.45,VALID,0,VALID,23.4017,VALID,132,VALID,0,
2014-11-06, 03:12:04,VALID,1011.14,VALID,0,INVALID,119.442,VALID,0,VALID,23.3805,VALID,132,VALID,0,
2014-11-06, 03:13:04,VALID,1011.12,VALID,0,INVALID,119.358,VALID,0,VALID,23.4212,VALID,132,VALID,0,
2014-11-06, 03:14:04,VALID,1011.09,VALID,0,INVALID,119.389,VALID,0.112112,VALID,23.4,VALID,132,VALID,0,
2014-11-06, 03:15:04,VALID,1011.06,VALID,0,INVALID,119.404,VALID,0.112112,VALID,23.3805,VALID,132,VALID,0,
2014-11-06, 03:16:04,VALID,1011.03,VALID,0,INVALID,119.412,VALID,0.112112,VALID,23.4017,VALID,132,VALID,0,
2014-11-06, 03:17:04,VALID,1011.02,VALID,0,INVALID,119.404,VALID,0,VALID,23.4017,VALID,132,VALID,0,
2014-11-06, 03:18:04,VALID,1011.01,VALID,0,INVALID,119.412,VALID,0,VALID,23.3805,VALID,132,VALID,0,
2014-11-06, 03:19:04,VALID,1011,VALID,0,INVALID,119.45,VALID,0,VALID,23.3823,VALID,132,VALID,0,
2014-11-06, 03:20:04,VALID,1011,VALID,0,INVALID,119.442,VALID,0,VALID,23.3823,VALID,132,VALID,0,
2014-11-06, 03:21:04,VALID,1011,VALID,0,INVALID,119.457,VALID,0,VALID,23.4017,VALID,132,VALID,0,
2014-11-06, 03:22:04,VALID,1011,VALID,0,INVALID,119.48,VALID,0.112112,VALID,23.4017,VALID,132,VALID,0,
2014-11-06, 03:23:04,VALID,1010.98,VALID,0,INVALID,119.465,VALID,0,VALID,23.3823,VALID,132,VALID,0,
2014-11-06, 03:24:04,VALID,1010.98,VALID,0,INVALID,119.419,VALID,0.112112,VALID,23.3805,VALID,132,VALID,0,
2014-11-06, 03:25:04,VALID,1010.96,VALID,0,INVALID,119.465,VALID,0.112112,VALID,23.4017,VALID,132,VALID,0,
2014-11-06, 03:26:04,VALID,1010.97,VALID,0,INVALID,119.465,VALID,0,VALID,23.3823,VALID,132,VALID,0,
2014-11-06, 03:27:04,VALID,1010.96,VALID,0,INVALID,119.496,VALID,0.112112,VALID,23.3628,VALID,132,VALID,0,
2014-11-06, 03:28:04,VALID,1010.97,VALID,0,INVALID,119.488,VALID,0,VALID,23.3823,VALID,132,VALID,0,
2014-11-06, 03:29:04,VALID,1010.98,VALID,0,INVALID,119.457,VALID,0,VALID,23.4017,VALID,132,VALID,0,
2014-11-06, 03:30:04,VALID,1010.95,VALID,0,INVALID,119.48,VALID,0,VALID,23.3823,VALID,132,VALID,0,
2014-11-06, 03:31:04,VALID,1010.95,VALID,0,INVALID,119.465,VALID,0,VALID,23.3823,VALID,132,VALID,0,
2014-11-06, 03:32:04,VALID,1010.96,VALID,0,INVALID,119.526,VALID,0.112112,VALID,23.3823,VALID,132,VALID,0,
2014-11-06, 03:33:04,VALID,1010.97,VALID,0,INVALID,119.541,VALID,0,VALID,23.3823,VALID,132,VALID,0,
2014-11-06, 03:34:04,VALID,1010.93,VALID,0,INVALID,119.595,VALID,0,VALID,23.3823,VALID,132,VALID,0,
2014-11-06, 03:35:04,VALID,1010.91,VALID,0,INVALID,119.526,VALID,0,VALID,23.3823,VALID,132,VALID,0,
2014-11-06, 03:36:04,VALID,1010.87,VALID,0,INVALID,119.496,VALID,0,VALID,23.3823,VALID,132,VALID,0,
2014-11-06, 03:37:04,VALID,1010.89,VALID,0,INVALID,119.511,VALID,0,VALID,23.361,VALID,132,VALID,0,
2014-11-06, 03:38:04,VALID,1010.9,VALID,0,INVALID,119.534,VALID,0,VALID,23.3628,VALID,132,VALID,0,
2014-11-06, 03:39:04,VALID,1010.86,VALID,0,INVALID,119.572,VALID,0,VALID,23.3628,VALID,132,VALID,0,
2014-11-06, 03:40:04,VALID,1010.9,VALID,0,INVALID,119.595,VALID,0,VALID,23.3628,VALID,132,VALID,0,
2014-11-06, 03:41:04,VALID,1010.88,VALID,0,INVALID,119.557,VALID,0.112112,VALID,23.361,VALID,132,VALID,0,
2014-11-06, 03:42:04,VALID,1010.89,VALID,0,INVALID,119.549,VALID,0,VALID,23.3823,VALID,132,VALID,0,
2014-11-06, 03:43:04,VALID,1010.89,VALID,0,INVALID,119.64,VALID,0,VALID,23.3628,VALID,132,VALID,0,
2014-11-06, 03:44:04,VALID,1010.86,VALID,0,INVALID,119.572,VALID,0,VALID,23.3628,VALID,132,VALID,0,
2014-11-06, 03:45:04,VALID,1010.86,VALID,0,INVALID,119.541,VALID,0,VALID,23.3433,VALID,131,VALID,0,
2014-11-06, 03:46:04,VALID,1010.83,VALID,0,INVALID,119.61,VALID,0,VALID,23.3415,VALID,132,VALID,0,
2014-11-06, 03:47:04,VALID,1010.83,VALID,0,INVALID,119.61,VALID,0,VALID,23.3628,VALID,132,VALID,0,
2014-11-06, 03:48:04,VALID,1010.82,VALID,0,INVALID,119.633,VALID,0.112112,VALID,23.3433,VALID,132,VALID,0,
2014-11-06, 03:49:04,VALID,1010.83,VALID,0,INVALID,119.625,VALID,0.112112,VALID,23.3433,VALID,132,VALID,0,
2014-11-06, 03:50:04,VALID,1010.82,VALID,0,INVALID,119.656,VALID,0,VALID,23.3433,VALID,132,VALID,0,
2014-11-06, 03:51:04,VALID,1010.81,VALID,0,INVALID,119.701,VALID,0,VALID,23.3238,VALID,132,VALID,0,